EST,Max TemperatureF,Mean TemperatureF,Min TemperatureF,Max Dew PointF,MeanDew PointF,Min DewpointF,Max Humidity, Mean Humidity, Min Humidity, Max Sea Level PressureIn, Mean Sea Level PressureIn, Min Sea Level PressureIn, Max VisibilityMiles, Mean VisibilityMiles, Min VisibilityMiles, Max Wind SpeedMPH, Mean Wind SpeedMPH, Max Gust SpeedMPH,PrecipitationIn, CloudCover, Events, WindDirDegrees
2012-12-1,51,45,39,37,35,27,81,71,53,30.39,30.35,30.30,10,10,10,15,9,17,0.00,1,,237
2012-12-2,57,49,41,46,41,36,87,74,58,30.36,30.30,30.24,10,10,10,20,14,26,0.00,3,Rain,241
2012-12-3,59,54,48,52,49,46,94,85,77,30.35,30.31,30.27,10,10,10,20,13,29,0.00,5,,250
2012-12-4,60,55,50,48,46,45,87,75,59,30.34,30.27,30.16,10,10,10,22,11,30,0.00,2,,245
2012-12-5,53,42,30,48,31,18,94,67,34,30.24,30.19,30.14,10,10,10,23,14,30,0.00,3,,296
2012-12-6,37,34,30,37,28,18,100,76,48,30.25,30.20,30.15,10,10,4,9,4,,0.00,3,Rain,175
2012-12-7,53,46,39,46,44,37,100,86,71,30.14,30.08,30.00,10,9,0,17,12,24,0.00,4,Rain,230
2012-12-8,55,52,48,48,46,45,94,85,72,30.09,30.01,29.96,10,10,10,21,14,25,0.00,6,,262
2012-12-9,53,50,46,52,48,46,100,96,82,30.17,30.09,29.98,10,5,0,13,7,18,0.04,8,Fog-Rain,186
2012-12-10,51,42,33,52,48,34,100,100,100,29.98,29.79,29.69,10,4,0,21,12,28,0.20,7,Fog-Rain-Snow,238
2012-12-11,33,28,23,34,27,21,100,93,75,30.13,29.95,29.76,10,8,0,18,12,28,0.00,5,Fog-Snow,285
2012-12-12,32,28,24,28,25,18,93,87,69,30.30,30.24,30.13,10,10,10,12,2,16,0.00,3,,86
2012-12-13,37,30,24,19,16,9,74,58,35,30.35,30.30,30.25,10,10,10,12,7,,0.00,0,,97
2012-12-14,46,38,30,25,20,9,70,50,23,30.31,30.26,30.24,10,10,10,16,11,21,0.00,0,,269
2012-12-15,44,40,35,30,20,5,81,45,20,30.24,30.15,30.04,10,10,7,15,7,20,0.03,3,Rain,165
2012-12-16,50,44,37,48,42,28,100,91,65,30.03,29.94,29.85,10,9,0,18,12,25,0.05,8,Fog-Rain,234
2012-12-17,48,44,41,45,42,39,100,90,76,29.88,29.77,29.61,10,9,0,20,9,29,0.20,3,Rain-Thunderstorm,228
2012-12-18,41,34,28,39,34,27,100,95,81,29.83,29.70,29.60,10,9,0,28,19,39,0.00,6,Fog-Rain-Snow,274
2012-12-19,44,37,30,32,28,25,86,68,49,30.14,29.97,29.81,10,10,10,28,17,34,0.00,3,,275
2012-12-20,41,36,30,41,31,27,100,94,65,30.14,29.86,29.42,10,4,0,26,11,31,0.34,5,Fog-Rain-Snow,136
2012-12-21,37,27,17,37,21,18,100,96,86,29.54,29.41,29.32,10,4,0,40,30,59,0.00,8,Snow,280
2012-12-22,24,20,17,19,16,12,100,83,69,29.96,29.82,29.54,10,6,2,34,28,53,0.00,2,Snow,285
2012-12-23,39,29,19,25,17,9,74,61,49,29.97,29.94,29.90,10,10,0,25,20,33,0.00,0,Snow,268
2012-12-24,37,34,30,37,32,25,100,93,70,29.96,29.88,29.79,10,4,0,22,11,29,0.38,6,Fog-Rain-Snow,212
2012-12-25,39,34,30,36,33,30,100,91,70,30.07,30.01,29.85,10,8,0,23,13,28,0.00,6,Fog-Snow,263
2012-12-26,30,27,24,30,27,25,100,100,100,30.03,29.66,29.44,0,0,0,20,12,26,0.18,8,Snow,86
2012-12-27,21,20,19,19,19,18,100,99,93,29.96,29.74,29.46,10,6,0,17,13,36,0.00,8,Snow,287
2012-12-28,30,27,24,27,24,23,100,88,80,30.04,29.97,29.87,10,8,0,9,4,,0.01,5,Fog,261
2012-12-29,30,26,21,30,25,19,100,96,86,29.87,29.67,29.53,10,2,0,24,11,33,0.09,8,Fog-Snow,255
2012-12-30,23,19,15,19,15,12,100,84,74,30.22,30.07,29.77,10,7,0,26,21,36,0.00,3,Snow,286
2012-12-31,30,22,15,19,12,7,93,58,40,30.21,30.11,29.97,10,9,2,26,18,37,0.00,1,Snow,270